Tracking 28920 objects as of 26-May-2024
HD Live streaming from Space Station
objects crossing your sky now

STARLINK-31483

Track STARLINK-31483 now!
10-day predictions
STARLINK-31483 is classified as:


NORAD ID: 59411
Int'l Code: 2024-064P
Perigee: 450.4 km
Apogee: 452.0 km
Inclination: 43.0 °
Period: 93.5 minutes
Semi major axis: 6822 km
RCS: Unknown
Launch date: April 5, 2024
Source: United States (US)
Launch site: AIR FORCE EASTERN TEST RANGE (AFETR)
Your satellite tracking list
Your tracking list is empty




NASA's NSSDC Master Catalog

Two Line Element Set (TLE):
1 59411U 24064P   24147.45107568  .00002299  00000-0  62298-4 0  9993
2 59411  43.0007 169.1516 0001185 277.1734  82.8988 15.40694603  9135
Source of the keplerian elements: AFSPC